When you browse on this site, cookies collect data to enhance your experience and personalize the content and advertising you see.
Visit our Privacy Policy to learn more. By continuing to use the site, you agree to this use of cookies and data.
  • In United Kingdom
  • List of Countries
  • For 7 days
  • Water Temperature
  • Satellite Maps
  • Weather Map
  • Weather Widgets
  • user-avatar
    Login

    Hourly Weather Zamosc

    Today, 21 July, Sunday

    Time Temperature Precipitation Wind Pressure Humidity
    00:00 +19°C° 0 mm 1 mps 737 mmHg 87%
    01:00 +18°C° 0 mm 1 mps 737 mmHg 88%
    02:00 +18°C° 0 mm 1 mps 737 mmHg 89%
    03:00 +18°C° 0 mm 1 mps 737 mmHg 89%
    04:00 +18°C° 0 mm 1 mps 737 mmHg 89%
    05:00 +18°C° 0 mm 1 mps 736 mmHg 89%
    06:00 +19°C° 0 mm 1 mps 736 mmHg 86%
    07:00 +21°C° 0 mm 1 mps 737 mmHg 83%
    08:00 +21°C° 0 mm 2 mps 737 mmHg 80%
    09:00 +24°C° 0 mm 2 mps 737 mmHg 74%
    10:00 +25°C° 0 mm 2 mps 737 mmHg 67%
    11:00 +27°C° 0 mm 2 mps 737 mmHg 61%
    12:00 +28°C° 0.1 mm 3 mps 737 mmHg 60%
    13:00 +28°C° 0.1 mm 3 mps 737 mmHg 59%
    14:00 +29°C° 0.1 mm 3 mps 736 mmHg 58%
    15:00 +28°C° 1.1 mm 2 mps 736 mmHg 61%
    16:00 +28°C° 1.1 mm 2 mps 736 mmHg 65%
    17:00 +28°C° 1.1 mm 1 mps 736 mmHg 68%
    18:00 +26°C° 2.2 mm 2 mps 736 mmHg 74%
    19:00 +23°C° 2.2 mm 4 mps 736 mmHg 80%
    20:00 +21°C° 2.2 mm 5 mps 736 mmHg 86%
    21:00 +20°C° 2.9 mm 4 mps 737 mmHg 90%
    22:00 +19°C° 2.9 mm 4 mps 737 mmHg 93%
    23:00 +18°C° 2.9 mm 4 mps 737 mmHg 96%

    Tomorrow, 22 July, Monday

    Time Temperature Precipitation Wind Pressure Humidity
    00:00 +18°C° 0.3 mm 4 mps 737 mmHg 95%
    01:00 +18°C° 0.3 mm 4 mps 737 mmHg 95%
    02:00 +18°C° 0.3 mm 4 mps 737 mmHg 94%
    03:00 +18°C° 0.7 mm 4 mps 737 mmHg 95%
    04:00 +17°C° 0.7 mm 4 mps 737 mmHg 95%
    05:00 +17°C° 0.7 mm 3 mps 737 mmHg 96%
    06:00 +18°C° 0 mm 4 mps 738 mmHg 94%
    07:00 +19°C° 0 mm 4 mps 738 mmHg 91%
    08:00 +20°C° 0 mm 5 mps 738 mmHg 89%
    09:00 +20°C° 0.3 mm 5 mps 739 mmHg 85%
    10:00 +21°C° 0.3 mm 5 mps 739 mmHg 81%
    11:00 +22°C° 0.3 mm 5 mps 739 mmHg 78%
    12:00 +22°C° 0.1 mm 5 mps 739 mmHg 73%
    13:00 +23°C° 0.1 mm 5 mps 739 mmHg 68%
    14:00 +25°C° 0.1 mm 5 mps 739 mmHg 63%
    15:00 +25°C° 0 mm 5 mps 739 mmHg 63%
    16:00 +25°C° 0 mm 5 mps 739 mmHg 64%
    17:00 +23°C° 0 mm 4 mps 739 mmHg 64%
    18:00 +22°C° 0 mm 4 mps 739 mmHg 69%
    19:00 +21°C° 0 mm 3 mps 739 mmHg 73%
    20:00 +19°C° 0 mm 2 mps 739 mmHg 78%
    21:00 +18°C° 0 mm 2 mps 739 mmHg 78%
    22:00 +18°C° 0 mm 2 mps 739 mmHg 78%
    23:00 +17°C° 0 mm 2 mps 739 mmHg 78%

    Day after tomorrow, 23 July, Tuesday

    Time Temperature Precipitation Wind Pressure Humidity
    00:00 +16°C° 0 mm 2 mps 739 mmHg 80%
    01:00 +16°C° 0 mm 2 mps 739 mmHg 81%
    02:00 +15°C° 0 mm 2 mps 739 mmHg 83%
    03:00 +15°C° 0 mm 1 mps 739 mmHg 86%
    04:00 +14°C° 0 mm 1 mps 739 mmHg 88%
    05:00 +14°C° 0 mm 1 mps 739 mmHg 91%
    06:00 +15°C° 0 mm 1 mps 739 mmHg 87%
    07:00 +17°C° 0 mm 2 mps 739 mmHg 83%
    08:00 +18°C° 0 mm 2 mps 739 mmHg 79%
    09:00 +19°C° 0.1 mm 2 mps 739 mmHg 74%
    10:00 +20°C° 0.1 mm 3 mps 739 mmHg 70%
    11:00 +22°C° 0.1 mm 4 mps 739 mmHg 66%
    12:00 +22°C° 0.1 mm 4 mps 739 mmHg 65%
    13:00 +22°C° 0.1 mm 4 mps 739 mmHg 64%
    14:00 +23°C° 0.1 mm 5 mps 739 mmHg 63%
    15:00 +23°C° 0 mm 5 mps 739 mmHg 63%
    16:00 +23°C° 0 mm 5 mps 739 mmHg 63%
    17:00 +22°C° 0 mm 5 mps 738 mmHg 64%
    18:00 +21°C° 0 mm 4 mps 738 mmHg 71%
    19:00 +20°C° 0 mm 4 mps 738 mmHg 77%
    20:00 +18°C° 0 mm 3 mps 738 mmHg 84%
    21:00 +17°C° 0 mm 3 mps 738 mmHg 87%
    22:00 +16°C° 0 mm 2 mps 738 mmHg 91%
    23:00 +15°C° 0 mm 2 mps 738 mmHg 94%

    24 July, Wednesday

    Time Temperature Precipitation Wind Pressure Humidity
    00:00 +14°C° 0 mm 2 mps 738 mmHg 95%
    01:00 +14°C° 0 mm 2 mps 738 mmHg 95%
    02:00 +14°C° 0 mm 2 mps 738 mmHg 96%
    03:00 +14°C° 0 mm 1 mps 738 mmHg 96%
    04:00 +14°C° 0 mm 1 mps 738 mmHg 96%
    05:00 +13°C° 0 mm 1 mps 738 mmHg 96%
    06:00 +15°C° 0 mm 1 mps 738 mmHg 92%
    07:00 +18°C° 0 mm 1 mps 738 mmHg 88%
    08:00 +18°C° 0 mm 2 mps 738 mmHg 83%
    09:00 +19°C° 0 mm 2 mps 738 mmHg 82%
    10:00 +20°C° 0 mm 2 mps 739 mmHg 80%
    11:00 +21°C° 0 mm 2 mps 739 mmHg 78%
    12:00 +21°C° 0 mm 2 mps 739 mmHg 77%
    13:00 +21°C° 0 mm 2 mps 738 mmHg 76%
    14:00 +23°C° 0 mm 2 mps 738 mmHg 75%
    15:00 +23°C° 0 mm 2 mps 738 mmHg 73%
    16:00 +24°C° 0 mm 2 mps 738 mmHg 71%
    17:00 +25°C° 0 mm 2 mps 738 mmHg 69%
    18:00 +23°C° 0 mm 2 mps 738 mmHg 74%
    19:00 +22°C° 0 mm 1 mps 738 mmHg 79%
    20:00 +21°C° 0 mm 1 mps 738 mmHg 85%
    21:00 +20°C° 0 mm 1 mps 738 mmHg 86%
    22:00 +20°C° 0 mm 1 mps 738 mmHg 88%
    23:00 +19°C° 0 mm 1 mps 738 mmHg 90%

    25 July, Thursday

    Time Temperature Precipitation Wind Pressure Humidity
    00:00 +19°C° 0 mm 1 mps 738 mmHg 89%
    01:00 +19°C° 0 mm 1 mps 738 mmHg 89%
    02:00 +19°C° 0 mm 1 mps 738 mmHg 88%
    03:00 +19°C° 0 mm 1 mps 738 mmHg 90%
    04:00 +18°C° 0 mm 1 mps 738 mmHg 92%
    05:00 +18°C° 0 mm 1 mps 738 mmHg 93%
    06:00 +20°C° 0 mm 1 mps 738 mmHg 89%
    07:00 +21°C° 0 mm 1 mps 739 mmHg 85%
    08:00 +23°C° 0 mm 2 mps 739 mmHg 81%
    09:00 +24°C° 0.1 mm 2 mps 739 mmHg 76%
    10:00 +25°C° 0.1 mm 2 mps 739 mmHg 70%
    11:00 +26°C° 0.1 mm 3 mps 739 mmHg 65%
    12:00 +27°C° 0.1 mm 3 mps 739 mmHg 64%
    13:00 +27°C° 0.1 mm 3 mps 739 mmHg 64%
    14:00 +28°C° 0.1 mm 3 mps 738 mmHg 63%
    15:00 +27°C° 0.3 mm 3 mps 738 mmHg 65%
    16:00 +27°C° 0.3 mm 2 mps 738 mmHg 67%
    17:00 +27°C° 0.3 mm 2 mps 738 mmHg 69%
    18:00 +25°C° 0.1 mm 2 mps 738 mmHg 74%
    19:00 +24°C° 0.1 mm 2 mps 738 mmHg 78%
    20:00 +23°C° 0.1 mm 2 mps 737 mmHg 82%
    21:00 +22°C° 0 mm 1 mps 737 mmHg 85%
    22:00 +21°C° 0 mm 1 mps 738 mmHg 88%
    23:00 +20°C° 0 mm 1 mps 738 mmHg 90%

    26 July, Friday

    Time Temperature Precipitation Wind Pressure Humidity
    00:00 +20°C° 0 mm 1 mps 737 mmHg 91%
    01:00 +19°C° 0 mm 1 mps 737 mmHg 92%
    02:00 +19°C° 0 mm 1 mps 737 mmHg 93%
    03:00 +19°C° 0 mm 1 mps 737 mmHg 93%
    04:00 +18°C° 0 mm 1 mps 737 mmHg 93%
    05:00 +18°C° 0 mm 1 mps 737 mmHg 94%
    06:00 +20°C° 0 mm 1 mps 737 mmHg 89%
    07:00 +21°C° 0 mm 1 mps 737 mmHg 85%
    08:00 +23°C° 0 mm 1 mps 737 mmHg 80%
    09:00 +24°C° 0 mm 1 mps 737 mmHg 75%
    10:00 +26°C° 0 mm 1 mps 737 mmHg 70%
    11:00 +27°C° 0 mm 1 mps 737 mmHg 65%
    12:00 +27°C° 0.3 mm 1 mps 737 mmHg 64%
    13:00 +27°C° 0.3 mm 1 mps 736 mmHg 63%
    14:00 +28°C° 0.3 mm 1 mps 736 mmHg 62%
    15:00 +28°C° 0.1 mm 1 mps 735 mmHg 61%
    16:00 +28°C° 0.1 mm 1 mps 735 mmHg 61%
    17:00 +28°C° 0.1 mm 1 mps 735 mmHg 60%
    18:00 +26°C° 0 mm 1 mps 734 mmHg 65%
    19:00 +25°C° 0 mm 1 mps 734 mmHg 70%
    20:00 +24°C° 0 mm 1 mps 734 mmHg 75%
    21:00 +23°C° 0 mm 1 mps 734 mmHg 77%
    22:00 +22°C° 0 mm 1 mps 734 mmHg 79%
    23:00 +19°C° 0 mm 0 mps 733 mmHg 81%
    Show more